Simultaneous Nadir Overpasses (SNOs) Predictions

Prediction of SNOs between METOP-B and TERRA Satellite Orbit:

Table of predicted SNOs for the next 14.0 days since TLE Epoch: 9/16/2023
Index Date (METOP-B) Time (METOP-B) Lat,Lon (METOP-B) SZA (METOP-B ) Date (TERRA) Time (TERRA) Lat,Lon (TERRA) SZA (TERRA ) Distance(km) Time Diff (sec)
1 09/16/2023 08:39:59 -80.71, -99.85 100.64 09/16/2023 08:40:21 -80.71, -99.86 100.63 0.48 22
2 09/16/2023 09:30:36 80.79, 68.71 79.55 09/16/2023 09:29:41 80.78, 68.55 79.51 2.99 55
3 09/19/2023 00:00:54 80.68,-150.52 80.34 09/19/2023 00:01:40 80.68,-150.63 80.34 2.08 46
4 09/19/2023 00:51:32 -80.75, 17.83 99.51 09/19/2023 00:51:00 -80.74, 17.69 99.54 2.82 32
5 09/21/2023 15:21:51 -80.64, 158.57 98.72 09/21/2023 15:22:59 -80.65, 158.70 98.68 2.51 68
6 09/21/2023 16:12:27 80.74, -32.59 81.51 09/21/2023 16:12:18 80.74, -32.67 81.50 1.53 9
7 09/24/2023 07:33:24 -80.69, -83.54 97.55 09/24/2023 07:33:37 -80.69, -83.49 97.54 1.00 13
8 09/24/2023 08:24:02 80.74, 84.59 82.58 09/24/2023 08:22:57 80.75, 84.76 82.57 2.96 65
9 09/26/2023 22:54:20 80.64,-134.48 83.39 09/26/2023 22:54:55 80.65,-134.35 83.42 2.43 35
10 09/26/2023 23:44:56 -80.76, 34.62 96.35 09/26/2023 23:44:14 -80.75, 34.44 96.39 3.27 42
11 09/29/2023 14:15:14 -80.64, 175.16 95.59 09/29/2023 14:16:11 -80.64, 175.20 95.56 0.69 57



Historial Predications of SNOs between METOP-B and TERRA
